Weather History for Oxford, CT

Change the Weather History Date:

Saturday, November 3, 2012

  Actual Average Record
Temperature  
Mean Temperature 40 °F -  
Max Temperature 46 °F 51 °F 77 °F (2003)
Min Temperature 35 °F 35 °F 24 °F (2002)
Degree Days  
Heating Degree Days 24    
Moisture  
Dew Point 29 °F    
Average Humidity 66    
Maximum Humidity 81    
Minimum Humidity 49    
Precipitation  
Precipitation 0.00 in - - ()
Sea Level Pressure  
Sea Level Pressure 29.79 in    
Wind  
Wind Speed 9 mph (NW)    
Max Wind Speed 20 mph    
Max Gust Speed 32 mph    
Visibility 10 miles    
Events      
Averages and records for this station are not official NWS values.
T = Trace of Precipitation, MM = Missing Value Source: NWS Daily Summary

Daily Weather History Graph

Daily Weather History Graph

Search for Another Location

Airport:

Trip Planner

Search our weather history database for the weather conditions in past years. The results will help you decide how hot, cold, wet, or windy it might be!

Date:

Astronomy

Nov. 03, 2012 Rise Set
Actual Time 7:27 AM EDT 5:44 PM EDT
Civil Twilight 6:58 AM EDT 6:13 PM EDT
Nautical Twilight 6:25 AM EDT 6:46 PM EDT
Astronomical Twilight 5:53 AM EDT 7:18 PM EDT
Moon 9:21 PM EDT (11/3) 11:30 AM EDT (11/3)
Length of Visible Light 11h 15m
Length of Day
10h 17m
Waning Gibbous, 80% of the Moon is Illuminated
Nov 3
Waning Gibbous
Nov 6
Last Quarter
Nov 13
New
Nov 20
First Quarter
Nov 28
Full

Hourly Weather History & Observations

Time (EDT) Temp. Windchill Dew Point Humidity Pressure Visibility Wind Dir Wind Speed Gust Speed Precip Events Conditions
12:15 AM 39.2 °F 33.0 °F 30.2 °F 70% 29.71 in 10.0 mi WNW 9.2 mph - N/A   Overcast
12:35 AM 39.2 °F 33.6 °F 30.2 °F 70% 29.71 in 10.0 mi WNW 8.1 mph - N/A   Overcast
12:55 AM 39.2 °F 33.6 °F 30.2 °F 70% 29.71 in 10.0 mi WNW 8.1 mph - N/A   Overcast
1:15 AM 39.2 °F 33.6 °F 30.2 °F 70% 29.71 in 10.0 mi WNW 8.1 mph - N/A   Overcast
1:35 AM 39.2 °F 33.0 °F 30.2 °F 70% 29.71 in 10.0 mi WNW 9.2 mph - N/A   Overcast
1:55 AM 39.2 °F 34.2 °F 30.2 °F 70% 29.71 in 10.0 mi WNW 6.9 mph 19.6 mph N/A   Overcast
2:15 AM 39.2 °F 33.6 °F 30.2 °F 70% 29.71 in 10.0 mi WNW 8.1 mph - N/A   Scattered Clouds
2:35 AM 39.2 °F 34.2 °F 30.2 °F 70% 29.71 in 10.0 mi WNW 6.9 mph - N/A   Mostly Cloudy
2:55 AM 39.2 °F 33.6 °F 32.0 °F 75% 29.71 in 10.0 mi WNW 8.1 mph - N/A   Mostly Cloudy
3:15 AM 39.2 °F 33.0 °F 30.2 °F 70% 29.71 in 10.0 mi NW 9.2 mph - N/A   Clear
3:35 AM 39.2 °F 34.2 °F 30.2 °F 70% 29.71 in 10.0 mi NW 6.9 mph - N/A   Clear
3:55 AM 37.4 °F 32.8 °F 30.2 °F 75% 29.71 in 10.0 mi WNW 5.8 mph - N/A   Clear
4:15 AM 37.4 °F 32.8 °F 30.2 °F 75% 29.72 in 10.0 mi NW 5.8 mph - N/A   Clear
4:35 AM 37.4 °F 33.8 °F 30.2 °F 75% 29.72 in 10.0 mi NW 4.6 mph - N/A   Clear
4:55 AM 37.4 °F 34.9 °F 30.2 °F 75% 29.72 in 10.0 mi WNW 3.5 mph - N/A   Clear
5:15 AM 37.4 °F 34.9 °F 30.2 °F 75% 29.73 in 10.0 mi WNW 3.5 mph - N/A   Scattered Clouds
5:35 AM 35.6 °F - 30.2 °F 81% 29.73 in 10.0 mi Calm Calm - N/A   Scattered Clouds
5:45 AM 35.6 °F - 30.2 °F 81% 29.74 in 10.0 mi Calm Calm - N/A   Partly Cloudy
5:55 AM 35.6 °F - 30.2 °F 81% 29.74 in 10.0 mi Calm Calm - N/A   Clear
6:45 AM 35.6 °F 30.7 °F 30.2 °F 81% 29.75 in 10.0 mi NW 5.8 mph - N/A   Partly Cloudy
7:45 AM 37.4 °F 32.8 °F 30.2 °F 75% 29.77 in 10.0 mi NNW 5.8 mph - N/A   Mostly Cloudy
8:45 AM 39.2 °F 35.0 °F 30.2 °F 70% 29.79 in 10.0 mi NNW 5.8 mph 17.3 mph N/A   Scattered Clouds
9:45 AM 42.8 °F 35.8 °F 28.4 °F 57% 29.80 in 10.0 mi NNW 13.8 mph 23.0 mph N/A   Scattered Clouds
10:50 AM 44.6 °F 36.9 °F 28.4 °F 53% 29.81 in 10.0 mi NNW 18.4 mph 32.2 mph N/A   Mostly Cloudy
11:45 AM 44.6 °F 37.2 °F 28.4 °F 53% 29.81 in 10.0 mi NW 17.3 mph 29.9 mph N/A   Scattered Clouds
12:45 PM 46.4 °F 41.1 °F 28.4 °F 50% 29.79 in 10.0 mi NW 11.5 mph 27.6 mph N/A   Partly Cloudy
1:45 PM 46.4 °F 41.9 °F 28.4 °F 50% 29.79 in 10.0 mi NNW 9.2 mph 27.6 mph N/A   Mostly Cloudy
2:45 PM 46.4 °F 39.0 °F 28.4 °F 50% 29.79 in 10.0 mi NNW 19.6 mph 27.6 mph N/A   Scattered Clouds
3:45 PM 44.6 °F 38.1 °F 28.4 °F 53% 29.81 in 10.0 mi North 13.8 mph 27.6 mph N/A   Scattered Clouds
4:45 PM 44.6 °F 38.4 °F 26.6 °F 49% 29.82 in 10.0 mi North 12.7 mph 23.0 mph N/A   Scattered Clouds
5:55 PM 42.8 °F 36.2 °F 26.6 °F 53% 29.84 in 10.0 mi North 12.7 mph 17.3 mph N/A   Scattered Clouds
6:45 PM 42.8 °F 36.2 °F 26.6 °F 53% 29.85 in 10.0 mi NNW 12.7 mph 23.0 mph N/A   Scattered Clouds
7:45 PM 41.0 °F 32.5 °F 26.6 °F 57% 29.88 in 10.0 mi NNW 17.3 mph 28.8 mph N/A   Scattered Clouds
8:45 PM 39.2 °F 29.8 °F 26.6 °F 61% 29.89 in 10.0 mi North 18.4 mph 26.5 mph N/A   Scattered Clouds
9:15 PM 39.2 °F 30.8 °F 26.6 °F 61% 29.89 in 10.0 mi NNW 15.0 mph 23.0 mph N/A   Partly Cloudy
9:35 PM 39.2 °F 32.5 °F 26.6 °F 61% 29.89 in 10.0 mi NNW 10.4 mph 21.9 mph N/A   Scattered Clouds
9:55 PM 39.2 °F 32.0 °F 26.6 °F 61% 29.89 in 10.0 mi NNW 11.5 mph 21.9 mph N/A   Scattered Clouds
10:15 PM 39.2 °F 33.0 °F 26.6 °F 61% 29.89 in 10.0 mi NW 9.2 mph 18.4 mph N/A   Scattered Clouds
10:35 PM - - - N/A% 29.89 in 10.0 mi NW 6.9 mph - N/A   Mostly Cloudy
10:55 PM 37.4 °F 32.1 °F 28.4 °F 70% 29.90 in 10.0 mi NW 6.9 mph - N/A   Mostly Cloudy
11:15 PM 37.4 °F 30.8 °F 28.4 °F 70% 29.90 in 10.0 mi NW 9.2 mph - N/A   Scattered Clouds
11:35 PM 37.4 °F 30.8 °F 28.4 °F 70% 29.89 in 10.0 mi NNW 9.2 mph - N/A   Clear
11:55 PM 37.4 °F 32.1 °F 28.4 °F 70% 29.89 in 10.0 mi NNW 6.9 mph - N/A   Clear